This demonstration page uses our WeatherBlox Daily Observations layout. Learn more.

Left ArrowRight Arrow

34.16533, -84.80231

Hourly Observations for June 7, 2019

Temp ( °F °C ) Dew Point ( °F °C ) Humidity (%) Winds ( mph kmh ) Pressure ( in mb ) Visibility ( mi km ) Precip ( " mm )
12:53 am 00:53 Cloudy 72 22.2 67 19.4 84 84 NE 3 6 29.81 1010 10 16 0.00 0.00
1:53 am 01:53 Cloudy 71 21.7 68 20 90 90 Calm 29.79 1009 10 16 0.00 0.03
2:53 am 02:53 Mostly Cloudy 72 22.2 68 20 87 87 VRB 3 6 29.77 1008 10 16 0.00 0.00
3:31 am 03:31 Cloudy 72 22.2 68 20 87 87 ESE 3 6 29.77 1008 10 16 0.00 0.00
3:53 am 03:53 Mostly Cloudy 72 22.2 68 20 87 87 ESE 5 7 29.73 1007 10 16 0.00 0.00
4:53 am 04:53 Mostly Cloudy with Light Rain 72 22.2 69 20.6 91 91 VRB 3 6 29.72 1006 10 16 0.00 0.03
5:03 am 05:03 Mostly Cloudy 72 22.2 69 20.6 91 91 Calm 29.74 1007 10 16 0.00 0.03
5:53 am 05:53 Cloudy 72 22.2 70 21.1 94 94 Calm 29.73 1007 10 16 0.00 0.03
6:01 am 06:01 Cloudy 72 22.2 69 20.6 91 91 Calm 29.75 1007 10 16 0.00 0.00
6:14 am 06:14 Cloudy 71 21.7 69 20.6 94 94 Calm 29.75 1007 10 16 0.00 0.00
6:53 am 06:53 Cloudy 71 21.7 69 20.6 94 94 Calm 29.75 1007 10 16 0.00 0.00
7:06 am 07:06 Cloudy 71 21.7 69 20.6 94 94 SE 3 6 29.76 1008 10 16 0.00 0.00
7:36 am 07:36 Mostly Cloudy 71 21.7 69 20.6 94 94 ESE 5 7 29.75 1007 10 16 0.00 0.00
7:53 am 07:53 Partly Cloudy 72 22.2 68 20 87 87 S 7 11 29.74 1007 10 16 0.00 0.00
8:53 am 08:53 Partly Cloudy 75 23.9 69 20.6 82 82 S 6 9 29.75 1007 10 16 0.00 0.00
9:53 am 09:53 Mostly Cloudy 78 25.6 70 21.1 76 76 SSE 10 17 29.72 1007 10 16 0.00 0.00
10:53 am 10:53 Cloudy 81 27.2 71 21.7 72 72 S 9 15 29.72 1006 10 16 0.00 0.00
11:53 am 11:53 Mostly Cloudy 82 27.8 70 21.1 67 67 VRB 6 9 29.73 1007 10 16 0.00 0.00
12:09 pm 12:09 Mostly Cloudy 83 28.3 71 21.7 67 67 SSW 10 17 29.73 1007 10 16 0.00 0.00
12:19 pm 12:19 Mostly Cloudy 85 29.4 71 21.7 63 63 SSW 8 13 29.73 1007 10 16 0.00 0.00
12:53 pm 12:53 Partly Cloudy 85 29.4 70 21.1 61 61 SW 8 13 29.71 1006 10 16 0.00 0.00
1:53 pm 13:53 Partly Cloudy 86 30 72 22.2 63 63 VRB 5 7 29.69 1005 10 16 0.00 0.03
2:32 pm 14:32 Mostly Cloudy with Light Rain 78 25.6 73 22.8 85 85 S 6 9 29.69 1005 2 3 0.06 1.52
2:38 pm 14:38 Partly Cloudy with Nearby Thunderstorms 81 27.2 73 22.8 77 77 S 5 7 29.68 1005 10 16 0.06 1.52
2:53 pm 14:53 Partly Cloudy with Nearby Thunderstorms 83 28.3 75 23.9 77 77 S 7 11 29.67 1005 10 16 0.06 1.52
3:03 pm 15:03 Partly Cloudy 84 28.9 72 22.2 67 67 VRB 6 9 29.66 1004 10 16 0.00 0.00
3:13 pm 15:13 Partly Cloudy with Nearby Thunderstorms 83 28.3 71 21.7 67 67 SSW 7 11 29.67 1005 10 16 0.00 0.00
3:53 pm 15:53 Partly Cloudy with Nearby Thunderstorms 77 25 70 21.1 79 79 S 9 15 29.69 1006 10 16 0.00 0.00
4:12 pm 16:12 Partly Cloudy 77 25 72 22.2 85 85 SSW 6 9 29.71 1006 10 16 0.00 0.03
4:53 pm 16:53 Mostly Cloudy with Nearby Thunderstorms 77 25 68 20 74 74 SSW 10 17 29.71 1006 10 16 0.00 0.03
5:06 pm 17:06 Mostly Cloudy with Thunderstorms 72 22.2 68 20 87 87 VRB 6 9 29.73 1007 6 10 0.01 0.25
5:21 pm 17:21 Mostly Cloudy with Rain 70 21.1 67 19.4 90 90 VRB 6 9 29.73 1007 5 8 0.03 0.76
5:53 pm 17:53 Cloudy with Light Rain 71 21.7 68 20 90 90 SSW 3 6 29.71 1006 10 16 0.06 1.52
6:53 pm 18:53 Sunny 73 22.8 68 20 84 84 Calm 29.69 1005 10 16 0.00 0.03
7:53 pm 19:53 Sunny 73 22.8 69 20.6 87 87 E 3 6 29.71 1006 10 16 0.00 0.00
8:53 pm 20:53 Clear 71 21.7 68 20 90 90 Calm 29.72 1006 10 16 0.00 0.00
10:53 pm 22:53 Clear 69 20.6 67 19.4 93 93 Calm 29.75 1008 10 16 0.00 0.00
11:53 pm 23:53 Mostly Clear 69 20.6 67 19.4 93 93 ENE 3 6 29.75 1008 10 16 0.00 0.00

Powered by AerisWeather